Location: Leiter
(44.7178°N, 106.2687°W)
Time: 08:43:52
(UTC+00:00)

DX 1 - Pass Details

Date: 09 July 2022
Orbit: 617 x 629 km, 98.4° (Epoch: 09 August)

Event Time Altitude Azimuth Distance (km) Brightness Sun altitude
Rises 04:01:04 0° 18° (NNE) 2,926 ? -10.2°
Reaches altitude 10° 04:03:19 10° 23° (NNE) 2,012 ? -10.5°
Maximum altitude 04:07:36 52° 100° (E) 783 ? -11.0°
Drops below altitude 10° 04:11:49 10° 178° (S) 1,988 ? -11.5°
Enters shadow 04:11:58 - 178° (S) 2,047 ? -11.6°
